Location: Unspecified
(0.0000°N, 0.0000°E)
Time: 18:10:03
(UTC+00:00)

Hubble Space Telescope - Pass Details

Date: 14 January 2026
Orbit: 479 x 481 km, 28.5° (Epoch: 19 January)

Event Time Altitude Azimuth Distance (km) Brightness Sun altitude
Rises 19:57:30 0° 250° (WSW) 2,520 5.6 -25.1°
Reaches altitude 10° 19:59:46 10° 256° (WSW) 1,641 4.2 -25.6°
Enters shadow 20:02:14 33° 282° (WNW) 811 2.0 -26.2°
